[[{"header":{"parameterUnit":"m.s-1","parameterCategory":2,"la1":30.2991,"la2":30.254,"lo1":-89.0895,"lo2":-89.0444,"dy":0.0017,"dx":0.0017,"nx":28,"ny":28,"refTime":"2023-09-09T09:00:00:Z","depth":"0","parameterNumber":2,"parameterNumberName":"U-component_of_CURRENTS"},"data":[0,0,0,0,0,0,0,0,0,0,0,0,0,0,0,0,0,0,0,0,0,0,0,0,0,0,0,0,0,0,0,0,0,0,0,0,0,0,0,0,0,0,0,0,0,0,0,0,0,0,0,0,0,0,0,0,0,0,0.3284,0.3285,0,0.3331,0.3331,0.3331,0.3351,0.3351,0.3351,0.3351,0.3339,0.3338,0.3338,0,0,0,0,0,0,0,0,0,0,0,0,0,0.3263,0.3262,0.3284,0.3285,0.3286,0.3331,0.3331,0.3331,0.3351,0.3351,0.3351,0.3352,0.3339,0.3338,0.3338,0,0,0,0,0,0,0,0,0,0,0,0,0,0.3283,0.3262,0.3284,0.3303,0.3306,0.3331,0.3331,0.3331,0.3351,0.3351,0.3351,0.3352,0.3339,0.3338,0.3338,0.3326,0,0,0.3335,0.3335,0,0,0,0,0,0,0,0,0.3282,0.3284,0.33,0.3302,0.3305,0.3338,0.3319,0.3328,0.3351,0.333,0.3351,0.3352,0.3335,0.3335,0.3339,0.3325,0.3324,0.3335,0.3335,0.3334,0.3334,0,0,0,0,0,0,0,0.3281,0.3282,0.3299,0.3301,0.3304,0.3328,0.333,0.3321,0.3326,0.3332,0.3334,0.3345,0.3336,0.3339,0.3338,0.3324,0.3335,0.3334,0.3334,0.3333,0.3409,0.3411,0,0,0,0,0,0,0.3279,0.328,0.3297,0.33,0.3298,0.3328,0.3331,0.3324,0.3328,0.333,0.3345,0.3346,0.3341,0.3339,0.3338,0.3414,0.3334,0.3333,0.3333,0.3407,0.341,0.3412,0,0,0,0,0,0,0.3278,0.3279,0.3295,0.3296,0.33,0.3328,0.3321,0.3325,0.3333,0.3339,0.3339,0.3349,0.3341,0.3339,0.336,0.341,0.3333,0.3332,0.3404,0.3407,0.3411,0.3508,0,0,0,0,0,0,0.3277,0.3278,0.3269,0.3295,0.33,0.3316,0.3321,0.3326,0.3341,0.3342,0.3342,0.3342,0.3341,0.3362,0.3359,0.3408,0.3332,0.34,0.3405,0.341,0.3502,0.3515,0.3526,0,0,0,0,0,0.3275,0.3269,0.3268,0.327,0.3287,0.3317,0.3322,0.3341,0.334,0.3348,0.3365,0.3342,0.3391,0.3363,0.3359,0.3409,0.3398,0.3404,0.3409,0.3496,0.3512,0.3525,0,0,0,0,0,0,0.3254,0.3271,0.3271,0.3268,0.3292,0.3322,0.3334,0.334,0.3358,0.336,0.3359,0.3361,0.3405,0.3389,0.3358,0.3448,0.3396,0.3401,0.3463,0.3478,0.349,0.3486,0.3331,0,0,0,0,0,0.3244,0.3244,0.3268,0.3267,0.328,0.3303,0.3316,0.3329,0.3352,0.3359,0.3365,0.3384,0.3425,0.3434,0.3452,0.3482,0.3483,0.3517,0.3529,0.354,0.3537,0.3589,0.3606,0.3431,0.3431,0.3431,0,0,0.3236,0.3247,0.3246,0.3263,0.3283,0.3323,0.3311,0.3336,0.3381,0.3354,0.3405,0.3417,0.3442,0.3499,0.3517,0.349,0.3596,0.3547,0.3555,0.3547,0.3597,0.3614,0.3629,0.3435,0.3434,0.3433,0,0,0.324,0.3231,0.3242,0.3269,0.3303,0.3329,0.3337,0.3368,0.3392,0.3434,0.3453,0.3493,0.3521,0.357,0.3597,0.3678,0.3658,0.3686,0.3742,0.3794,0.3808,0.3821,0.3866,0.3882,0.3692,0.3692,0.3693,0,0.323,0.3248,0.3251,0.3285,0.3325,0.3337,0.3383,0.3414,0.345,0.3482,0.3462,0.3555,0.3565,0.3671,0.371,0.3706,0.3724,0.3685,0.3809,0.3821,0.3832,0.3875,0.3891,0.3698,0.3697,0.3697,0.3696,0,0.3253,0.3278,0.3294,0.3345,0.3385,0.3423,0.3479,0.3508,0.3532,0.3568,0.3649,0.3671,0.3728,0.3752,0.3755,0.3859,0.3844,0.3818,0.3769,0.3856,0.3896,0.3911,0.3705,0.3704,0.3702,0.3701,0,0,0.321,0.3292,0.3298,0.3348,0.3424,0.3463,0.3542,0.3622,0.3675,0.371,0.3785,0.3865,0.3862,0.3892,0.3908,0.3949,0.4052,0.3918,0.3918,0.3957,0.4169,0.4167,0.4182,0.4048,0.4051,0.4053,0.4173,0,0.3231,0.3309,0.3348,0.3447,0.3506,0.3559,0.3632,0.3705,0.3758,0.3824,0.3874,0.3939,0.3927,0.395,0.4003,0.4031,0.4093,0.4022,0.4083,0.4085,0.4067,0.42,0.393,0.4014,0.4187,0.4189,0.4191,0,0.3247,0.3306,0.3394,0.3518,0.3546,0.3599,0.3721,0.3785,0.3884,0.3919,0.3994,0.4023,0.4115,0.4068,0.4186,0.414,0.4171,0.4183,0.4188,0.4156,0.4111,0.3952,0.4034,0.3926,0.4214,0.4212,0.421,0,0.3238,0.3346,0.342,0.3462,0.3588,0.3635,0.3698,0.3804,0.3872,0.397,0.4019,0.4122,0.4168,0.4225,0.4277,0.4234,0.4385,0.4328,0.4366,0.4365,0.4131,0.4106,0.4103,0.4424,0.4424,0.4423,0.4423,0,0.326,0.3324,0.3413,0.3458,0.3541,0.3631,0.3726,0.3787,0.3896,0.3972,0.4056,0.4137,0.4206,0.4303,0.4326,0.4414,0.4442,0.4407,0.4411,0.4161,0.4139,0.4028,0.3985,0.4428,0.4427,0.4426,0.4425,0,0.3248,0.3304,0.3391,0.3504,0.3537,0.3588,0.3723,0.3783,0.3887,0.3984,0.4017,0.4173,0.4302,0.4391,0.4492,0.4484,0.4419,0.4575,0.4284,0.4253,0.416,0.4133,0.4013,0.3909,0.4622,0.4623,0.4624,0,0.3246,0.3288,0.3393,0.3419,0.3464,0.3557,0.3609,0.3744,0.3805,0.4003,0.4032,0.4222,0.4322,0.4506,0.4528,0.4605,0.4473,0.4401,0.4277,0.4158,0.4129,0.3973,0.3881,0.4004,0.4,0.3996,0.3993,0,0.3244,0.3268,0.333,0.3374,0.3421,0.3504,0.3586,0.3639,0.3783,0.3869,0.3995,0.4102,0.4307,0.4285,0.4424,0.4422,0.4153,0.4335,0.4258,0.3709,0.3483,0.338,0.3937,0.3961,0.3965,0.3967,0.3969,0.397,0.3211,0.3234,0.3283,0.3312,0.3365,0.3406,0.3414,0.3514,0.3592,0.3659,0.3839,0.3895,0.3985,0.4149,0.4154,0.3981,0.4027,0.3802,0.3801,0.3673,0.3493,0.4016,0.4024,0.4028,0.4031,0.4033,0.4036,0,0.3149,0.3179,0.3215,0.3229,0.3219,0.3293,0.3352,0.332,0.3327,0.3464,0.3526,0.3539,0.3529,0.3602,0.3536,0.3422,0.3225,0.3325,0.2983,0.2942,0.3429,0.3323,0.3119,0.3119,0.3119,0.3119,0.3119,0.3119,0.3116,0.3112,0.3122,0.3061,0.3064,0.3005,0.3,0.2979,0.3031,0.3008,0.2998,0.3068,0.3192,0.3171,0.3033,0.2959,0.2754,0.2595,0.271,0.2991,0.3032,0.3071,0.2961,0.2684,0.2683,0.1993,0.1988,0.1984]},{"header":{"parameterUnit":"m.s-1","parameterCategory":2,"la1":30.2991,"la2":30.254,"lo1":-89.0895,"lo2":-89.0444,"dy":0.0017,"dx":0.0017,"nx":28,"ny":28,"refTime":"2023-09-09T09:00:00:Z","depth":"0","parameterNumber":3,"parameterNumberName":"V-component_of_CURRENTS"},"data":[0,0,0,0,0,0,0,0,0,0,0,0,0,0,0,0,0,0,0,0,0,0,0,0,0,0,0,0,0,0,0,0,0,0,0,0,0,0,0,0,0,0,0,0,0,0,0,0,0,0,0,0,0,0,0,0,0,0,-0.0035,-0.0036,0,-0.0104,-0.0105,-0.0106,-0.0168,-0.0169,-0.0169,-0.017,-0.0272,-0.0274,-0.0276,0,0,0,0,0,0,0,0,0,0,0,0,0,-0.0002,-0.0002,-0.0035,-0.0036,-0.0036,-0.0104,-0.0105,-0.0106,-0.0168,-0.0169,-0.0169,-0.017,-0.0271,-0.0274,-0.0276,0,0,0,0,0,0,0,0,0,0,0,0,0,-0.0039,-0.0002,-0.0035,-0.0074,-0.0078,-0.0104,-0.0105,-0.0107,-0.0168,-0.0169,-0.0169,-0.017,-0.027,-0.0273,-0.0277,-0.0278,0,0,-0.0286,-0.0288,0,0,0,0,0,0,0,0,-0.0037,-0.0041,-0.0068,-0.0072,-0.0076,-0.0127,-0.0131,-0.0165,-0.0167,-0.0135,-0.017,-0.0171,-0.0225,-0.0232,-0.0244,-0.0283,-0.0287,-0.0287,-0.0289,-0.029,-0.0291,0,0,0,0,0,0,0,-0.0034,-0.0038,-0.0064,-0.0068,-0.0074,-0.0105,-0.0111,-0.0138,-0.0176,-0.0138,-0.0142,-0.0148,-0.0228,-0.0241,-0.0247,-0.0289,-0.0287,-0.029,-0.0292,-0.0293,-0.0444,-0.0446,0,0,0,0,0,0,-0.002,-0.0035,-0.0061,-0.0066,-0.0057,-0.0104,-0.0111,-0.0111,-0.0175,-0.0185,-0.0147,-0.015,-0.0235,-0.0243,-0.0251,-0.0318,-0.029,-0.0293,-0.0295,-0.0442,-0.0444,-0.0447,0,0,0,0,0,0,-0.0019,-0.0021,-0.0059,-0.0052,-0.0058,-0.0103,-0.0103,-0.0112,-0.0126,-0.0181,-0.0192,-0.0152,-0.0236,-0.0247,-0.0297,-0.032,-0.0295,-0.0297,-0.0439,-0.0443,-0.0445,-0.0413,0,0,0,0,0,0,-0.0017,-0.002,-0.0013,-0.005,-0.0058,-0.0069,-0.0102,-0.0113,-0.0127,-0.0133,-0.0189,-0.0199,-0.0238,-0.0292,-0.03,-0.0324,-0.03,-0.0437,-0.0441,-0.0444,-0.0411,-0.0414,-0.0417,0,0,0,0,0,-0.0016,-0.0004,-0.0012,-0.0016,-0.0048,-0.0069,-0.0076,-0.0112,-0.0126,-0.0129,-0.0185,-0.0198,-0.0324,-0.0296,-0.0305,-0.033,-0.0435,-0.044,-0.0444,-0.041,-0.0414,-0.0417,0,0,0,0,0,0,0.0015,-0.001,-0.002,-0.0016,-0.0037,-0.0079,-0.0082,-0.0104,-0.0147,-0.0155,-0.0209,-0.0224,-0.0283,-0.0313,-0.028,-0.0392,-0.0387,-0.0394,-0.0358,-0.0362,-0.0365,-0.0328,-0.0303,0,0,0,0,0,0.0027,0.0028,-0.0,0.0004,-0.0003,-0.0039,-0.0051,-0.0074,-0.0116,-0.0135,-0.0179,-0.0242,-0.0309,-0.0337,-0.0391,-0.0433,-0.043,-0.0465,-0.0468,-0.0469,-0.0451,-0.048,-0.0482,-0.0462,-0.0462,-0.0462,0,0,0.0039,0.0028,0.0027,0.0011,-0.0009,-0.0026,-0.0049,-0.0062,-0.009,-0.0139,-0.0188,-0.0244,-0.0324,-0.0388,-0.0418,-0.0414,-0.0473,-0.0475,-0.0476,-0.0456,-0.0484,-0.0486,-0.0487,-0.0465,-0.0465,-0.0464,0,0,0.0062,0.0056,0.0062,0.0045,0.0023,-0.0005,-0.0005,-0.0044,-0.0074,-0.0119,-0.0184,-0.0245,-0.0326,-0.0395,-0.0442,-0.0489,-0.0487,-0.0521,-0.0501,-0.053,-0.053,-0.053,-0.051,-0.0508,-0.0522,-0.0522,-0.0522,0,0.0077,0.0078,0.006,0.0057,0.0038,0.0005,-0.0005,-0.0039,-0.0094,-0.0122,-0.0131,-0.0272,-0.0331,-0.0429,-0.0458,-0.0491,-0.0489,-0.0474,-0.0528,-0.0528,-0.0529,-0.0508,-0.0507,-0.0521,-0.0521,-0.0521,-0.0521,0,0.0098,0.0093,0.0095,0.0073,0.0052,0.0042,-0.0008,-0.0035,-0.007,-0.011,-0.0189,-0.0267,-0.0344,-0.0393,-0.044,-0.05,-0.0488,-0.0522,-0.0503,-0.0528,-0.0506,-0.0505,-0.0519,-0.052,-0.052,-0.052,0,0,0.0143,0.0115,0.0116,0.0109,0.0058,0.005,-0.0004,-0.0056,-0.007,-0.0139,-0.0167,-0.0301,-0.032,-0.0374,-0.0443,-0.0477,-0.0484,-0.0496,-0.0498,-0.0445,-0.0506,-0.0439,-0.0432,-0.0524,-0.0524,-0.0525,-0.0478,0,0.0162,0.0165,0.0132,0.0119,0.0113,0.0055,0.0019,-0.0034,-0.0078,-0.0108,-0.0204,-0.025,-0.0323,-0.0343,-0.0397,-0.0464,-0.0484,-0.049,-0.0515,-0.0515,-0.0428,-0.043,-0.0366,-0.0315,-0.0478,-0.0478,-0.0478,0,0.0188,0.0187,0.0184,0.0152,0.0146,0.0128,0.008,0.0045,-0.0027,-0.0055,-0.0124,-0.0175,-0.0257,-0.0295,-0.0398,-0.0396,-0.0441,-0.0484,-0.0484,-0.0428,-0.0447,-0.0325,-0.0307,-0.0443,-0.0477,-0.0477,-0.0477,0,0.0237,0.0218,0.0221,0.0208,0.0169,0.0154,0.0126,0.0064,0.0063,-0.0007,0.0007,-0.0111,-0.0127,-0.0228,-0.0316,-0.0356,-0.0387,-0.0457,-0.0435,-0.0429,-0.038,-0.0369,-0.0468,-0.0507,-0.0507,-0.0507,-0.0507,0,0.0264,0.0268,0.0255,0.0258,0.0281,0.0219,0.0235,0.019,0.0162,0.0202,0.0057,0.0084,-0.0107,-0.0152,-0.0265,-0.0318,-0.0346,-0.0408,-0.0415,-0.0366,-0.0356,-0.0476,-0.0579,-0.0506,-0.0506,-0.0506,-0.0507,0,0.0309,0.0296,0.0316,0.0302,0.0307,0.0326,0.0332,0.0354,0.0305,0.0358,0.0351,0.0248,0.0198,0.0038,-0.0091,-0.0209,-0.0346,-0.0307,-0.0206,-0.0203,-0.0329,-0.0432,-0.0498,-0.0554,-0.0285,-0.0283,-0.0282,0,0.0334,0.035,0.0378,0.0419,0.0418,0.0443,0.0474,0.0435,0.0477,0.0488,0.0539,0.049,0.0512,0.0335,0.0127,-0.0028,-0.0221,-0.0112,-0.0197,-0.0303,-0.0425,-0.0496,-0.0546,-0.0114,-0.0112,-0.0109,-0.0107,0,0.0396,0.0411,0.0436,0.052,0.0572,0.0625,0.0669,0.0731,0.0726,0.0804,0.09,0.0922,0.0757,0.0625,0.0373,0.0227,-0.0191,-0.0067,-0.0226,-0.0326,-0.0362,-0.0429,-0.0154,-0.0087,-0.0089,-0.009,-0.0091,-0.0092,0.0466,0.0506,0.0558,0.0637,0.0707,0.0804,0.0873,0.0963,0.1094,0.1243,0.1235,0.1345,0.1056,0.0733,0.0491,0.0066,0.0004,-0.0089,-0.0206,-0.0267,-0.0325,0.0032,0.0111,0.011,0.0109,0.0109,0.0108,0,0.0567,0.0603,0.0676,0.0777,0.0875,0.0882,0.1011,0.1111,0.1322,0.1512,0.1656,0.1647,0.1303,0.086,0.0281,-0.0028,-0.0182,-0.023,-0.0357,-0.0407,-0.0119,-0.0117,-0.0024,-0.0024,-0.0023,-0.0023,-0.0023,-0.0023,0.0627,0.0715,0.074,0.0914,0.0986,0.1122,0.1208,0.1388,0.1553,0.1835,0.1975,0.2038,0.1705,0.0629,-0.0114,-0.0302,-0.0553,-0.0556,-0.0724,-0.0578,-0.0576,-0.0574,-0.0597,-0.0605,-0.0606,-0.0944,-0.0947,-0.095]}],[{"header":{"parameterUnit":"m.s-1","parameterCategory":2,"la1":30.2991,"la2":30.254,"lo1":-89.0895,"lo2":-89.0444,"dy":0.0017,"dx":0.0017,"nx":28,"ny":28,"refTime":"2023-09-09T09:00:00:Z","depth":"2","parameterNumber":2,"parameterNumberName":"U-component_of_CURRENTS"},"data":[0,0,0,0,0,0,0,0,0,0,0,0,0,0,0,0,0,0,0,0,0,0,0,0,0,0,0,0,0,0,0,0,0,0,0,0,0,0,0,0,0,0,0,0,0,0,0,0,0,0,0,0,0,0,0,0,0,0,0.24,0.2401,0,0.2409,0.2408,0.2408,0.242,0.242,0.2421,0.2422,0.243,0.243,0.2429,0,0,0,0,0,0,0,0,0,0,0,0,0,0.2349,0.2349,0.24,0.2401,0.2401,0.2409,0.2408,0.2408,0.242,0.242,0.2421,0.2422,0.243,0.243,0.2429,0,0,0,0,0,0,0,0,0,0,0,0,0,0.236,0.2349,0.24,0.2413,0.2414,0.2409,0.2408,0.2408,0.2419,0.242,0.2422,0.2423,0.2431,0.243,0.2429,0.2402,0,0,0.2427,0.2427,0,0,0,0,0,0,0,0,0.2359,0.2361,0.241,0.2412,0.2414,0.242,0.2394,0.2408,0.2419,0.2411,0.2422,0.2423,0.243,0.2429,0.242,0.2402,0.2403,0.2427,0.2426,0.2426,0.2426,0,0,0,0,0,0,0,0.2358,0.236,0.2397,0.2411,0.2413,0.2403,0.2406,0.2396,0.2409,0.2412,0.2414,0.2425,0.243,0.242,0.242,0.2403,0.2427,0.2426,0.2426,0.2426,0.2447,0.2448,0,0,0,0,0,0,0.2371,0.236,0.2397,0.2398,0.2396,0.2404,0.2406,0.2412,0.2409,0.2412,0.2424,0.2425,0.2421,0.2421,0.242,0.2491,0.2426,0.2426,0.2425,0.2446,0.2447,0.2449,0,0,0,0,0,0,0.237,0.2374,0.2397,0.2384,0.2387,0.2404,0.241,0.2411,0.2424,0.242,0.2421,0.2439,0.2422,0.2421,0.2433,0.2488,0.2425,0.2425,0.2445,0.2447,0.2448,0.2567,0,0,0,0,0,0,0.2368,0.2373,0.238,0.2385,0.2389,0.2406,0.2409,0.2411,0.2431,0.2433,0.2432,0.2433,0.2423,0.2435,0.2433,0.2486,0.2424,0.2444,0.2446,0.2447,0.2562,0.2573,0.2582,0,0,0,0,0,0.2366,0.237,0.2379,0.2385,0.2398,0.2407,0.2407,0.2418,0.2431,0.2434,0.2441,0.2434,0.2446,0.2434,0.2432,0.2487,0.2443,0.2445,0.2447,0.2558,0.2571,0.2582,0,0,0,0,0,0,0.2353,0.2373,0.2383,0.2394,0.2408,0.2412,0.242,0.2429,0.2434,0.2443,0.2438,0.2439,0.2466,0.245,0.2438,0.2495,0.2446,0.2448,0.2531,0.2543,0.2553,0.2601,0.2423,0,0,0,0,0,0.2354,0.2365,0.2381,0.2394,0.2402,0.2414,0.2421,0.2431,0.2439,0.2443,0.2448,0.2454,0.2468,0.2486,0.2474,0.2506,0.2516,0.254,0.255,0.2558,0.2594,0.2623,0.264,0.2456,0.2456,0.2456,0,0,0.2353,0.2369,0.2374,0.2393,0.2404,0.2424,0.242,0.2438,0.2463,0.2443,0.2475,0.2476,0.2476,0.2512,0.2526,0.2516,0.2619,0.2561,0.2569,0.2601,0.2628,0.2646,0.2662,0.2458,0.2457,0.2457,0,0,0.2357,0.2372,0.2382,0.2397,0.2424,0.2436,0.2449,0.2463,0.2479,0.2504,0.2506,0.2538,0.2548,0.2573,0.2586,0.2639,0.2654,0.2647,0.2762,0.279,0.2806,0.2821,0.2879,0.2898,0.2673,0.2673,0.2673,0,0.2358,0.2373,0.2386,0.2405,0.2421,0.2449,0.2464,0.2489,0.2509,0.2537,0.2527,0.2597,0.2578,0.267,0.2701,0.2665,0.2705,0.2722,0.2807,0.2821,0.2834,0.289,0.2909,0.2679,0.2678,0.2678,0.2677,0,0.237,0.2386,0.2397,0.2435,0.2451,0.2469,0.2507,0.2537,0.2566,0.2603,0.2683,0.2688,0.2745,0.275,0.2752,0.2859,0.2866,0.2802,0.2786,0.2861,0.2914,0.2932,0.2688,0.2685,0.2684,0.2682,0,0,0.2367,0.2395,0.2406,0.242,0.2464,0.2482,0.2535,0.2594,0.2667,0.2711,0.2806,0.2854,0.2901,0.292,0.294,0.2993,0.3108,0.2973,0.2972,0.305,0.3229,0.3097,0.3104,0.308,0.3083,0.3085,0.3239,0,0.2375,0.2399,0.2418,0.2459,0.2468,0.2512,0.258,0.2646,0.2705,0.2806,0.2874,0.296,0.2958,0.3014,0.3076,0.3093,0.316,0.3076,0.3129,0.3132,0.302,0.312,0.2864,0.2967,0.3256,0.3259,0.3261,0,0.2382,0.2398,0.242,0.2475,0.2492,0.2537,0.2643,0.272,0.2868,0.2921,0.3044,0.309,0.3225,0.3172,0.3309,0.3274,0.328,0.3285,0.3289,0.3141,0.3033,0.2932,0.2989,0.329,0.3288,0.3286,0.3284,0,0.2365,0.2401,0.2418,0.2434,0.2512,0.2549,0.2628,0.2761,0.2842,0.3022,0.3083,0.3247,0.3324,0.3385,0.34,0.338,0.3516,0.3453,0.3353,0.3345,0.3122,0.3087,0.3532,0.3532,0.3532,0.3531,0.3531,0,0.2355,0.2375,0.2416,0.2436,0.2506,0.2573,0.2696,0.2794,0.2949,0.3069,0.3175,0.3267,0.338,0.3448,0.3466,0.3481,0.3561,0.3416,0.3381,0.3154,0.3122,0.3379,0.3359,0.3537,0.3536,0.3535,0.3534,0,0.2325,0.2353,0.2387,0.2465,0.2497,0.2569,0.2714,0.2807,0.2962,0.3109,0.3164,0.3316,0.3423,0.3487,0.3578,0.3533,0.3555,0.3518,0.3265,0.3197,0.3367,0.3352,0.3475,0.3472,0.347,0.3467,0.3465,0,0.231,0.2313,0.2403,0.2435,0.2469,0.2577,0.2658,0.2817,0.2902,0.3119,0.3174,0.3313,0.3354,0.3455,0.3444,0.3464,0.3516,0.3202,0.3082,0.3411,0.3366,0.3354,0.3343,0.2861,0.2854,0.2849,0.2844,0,0.2274,0.2313,0.2351,0.2421,0.2485,0.2544,0.2657,0.27,0.2902,0.2969,0.3064,0.31,0.3233,0.3134,0.3159,0.3131,0.3183,0.3087,0.3509,0.2886,0.2835,0.2788,0.2797,0.2795,0.28,0.2804,0.2806,0.2808,0.2258,0.2276,0.2338,0.2382,0.2463,0.2477,0.2473,0.256,0.2625,0.2692,0.2844,0.2821,0.2896,0.28,0.2727,0.2705,0.2923,0.2783,0.2799,0.2821,0.2694,0.2637,0.2541,0.2544,0.2547,0.255,0.2552,0,0.2201,0.2228,0.2283,0.2322,0.2338,0.2414,0.2444,0.2385,0.236,0.2463,0.2482,0.2294,0.2229,0.2322,0.2211,0.2203,0.2181,0.2111,0.2064,0.2116,0.2161,0.1997,0.1661,0.1658,0.1655,0.1653,0,0,0.2175,0.2185,0.2195,0.2174,0.2204,0.2147,0.2115,0.2049,0.2058,0.1969,0.1958,0.2112,0.2228,0.1903,0.1876,0.1744,0.1907,0.1675,0.2397,0.2393,0.2433,0.2565,0.2373,0,0,0,0,0]},{"header":{"parameterUnit":"m.s-1","parameterCategory":2,"la1":30.2991,"la2":30.254,"lo1":-89.0895,"lo2":-89.0444,"dy":0.0017,"dx":0.0017,"nx":28,"ny":28,"refTime":"2023-09-09T09:00:00:Z","depth":"2","parameterNumber":3,"parameterNumberName":"V-component_of_CURRENTS"},"data":[0,0,0,0,0,0,0,0,0,0,0,0,0,0,0,0,0,0,0,0,0,0,0,0,0,0,0,0,0,0,0,0,0,0,0,0,0,0,0,0,0,0,0,0,0,0,0,0,0,0,0,0,0,0,0,0,0,0,0.0183,0.0183,0,0.0129,0.0128,0.0127,0.0091,0.0091,0.0091,0.0091,0.0027,0.0025,0.0024,0,0,0,0,0,0,0,0,0,0,0,0,0,0.0214,0.0214,0.0183,0.0183,0.0182,0.0129,0.0128,0.0127,0.0091,0.0091,0.0091,0.0091,0.0028,0.0026,0.0024,0,0,0,0,0,0,0,0,0,0,0,0,0,0.0183,0.0214,0.0183,0.016,0.0157,0.0129,0.0128,0.0127,0.0091,0.0091,0.0091,0.0091,0.0028,0.0026,0.0023,0.0009,0,0,0.0016,0.0015,0,0,0,0,0,0,0,0,0.0184,0.0181,0.0164,0.0161,0.0158,0.0119,0.0116,0.0088,0.0091,0.0114,0.0091,0.0091,0.0058,0.0053,0.004,0.0006,0.0003,0.0016,0.0014,0.0013,0.0012,0,0,0,0,0,0,0,0.0187,0.0183,0.016,0.0163,0.016,0.0138,0.0133,0.011,0.0085,0.0112,0.011,0.0107,0.0057,0.0043,0.0038,0.0002,0.0016,0.0013,0.0012,0.0011,-0.0039,-0.0039,0,0,0,0,0,0,0.02,0.0185,0.0161,0.0158,0.0174,0.0138,0.0132,0.013,0.0085,0.0079,0.0107,0.0106,0.0047,0.0041,0.0036,0.0037,0.0013,0.0011,0.0009,-0.0039,-0.0039,-0.0039,0,0,0,0,0,0,0.0201,0.0199,0.0164,0.0172,0.0167,0.0138,0.0135,0.0129,0.0115,0.0083,0.0076,0.01,0.0047,0.004,0.0023,0.0034,0.0009,0.0007,-0.0039,-0.0039,-0.0039,0.0027,0,0,0,0,0,0,0.0202,0.0199,0.02,0.0173,0.0167,0.0154,0.0135,0.0128,0.0115,0.0112,0.0075,0.0068,0.0046,0.0027,0.0021,0.003,0.0005,-0.0039,-0.0039,-0.0039,0.0024,0.0029,0.0033,0,0,0,0,0,0.0204,0.0208,0.02,0.0198,0.0169,0.0155,0.0149,0.0126,0.0115,0.0113,0.009,0.007,0.0024,0.0025,0.0018,0.0027,-0.004,-0.0039,-0.0039,0.0022,0.0028,0.0033,0,0,0,0,0,0,0.022,0.0204,0.0195,0.0194,0.0179,0.015,0.0147,0.0129,0.0107,0.0106,0.0072,0.0065,0.0057,0.0029,0.0031,0.0012,-0.0011,-0.0012,0.0038,0.0043,0.0047,0.0083,0.0003,0,0,0,0,0,0.0226,0.0224,0.0205,0.0203,0.0201,0.0173,0.0164,0.0149,0.0128,0.0118,0.0092,0.0066,0.0051,0.0038,0.0019,0.0005,-0.0015,0.0004,0.0009,0.0013,0.0036,0.0021,0.0027,-0.0037,-0.0037,-0.0037,0,0,0.0232,0.0223,0.0221,0.0207,0.0194,0.02,0.0167,0.0159,0.0166,0.0115,0.0114,0.0084,0.0052,0.0044,0.0037,0.0022,0.0015,0.0014,0.0018,0.0039,0.0022,0.0029,0.0034,-0.0037,-0.0037,-0.0037,0,0,0.0249,0.0237,0.0245,0.0239,0.0227,0.0216,0.0217,0.0192,0.0184,0.0172,0.0147,0.0134,0.0088,0.0085,0.0073,0.009,0.0044,0.0065,0.0113,0.0098,0.0103,0.0108,0.0069,0.007,0.0062,0.0063,0.0063,0,0.0258,0.0269,0.0245,0.0254,0.027,0.0229,0.0257,0.0237,0.0208,0.022,0.0181,0.0153,0.0119,0.0137,0.0132,0.0106,0.0071,0.0097,0.0106,0.011,0.0114,0.0073,0.0073,0.0066,0.0065,0.0065,0.0065,0,0.0285,0.0296,0.0303,0.0311,0.0321,0.0333,0.0321,0.0321,0.0301,0.0285,0.0289,0.024,0.0226,0.0204,0.0167,0.0181,0.0138,0.0118,0.0098,0.0125,0.0079,0.0078,0.007,0.0069,0.0068,0.0067,0,0,0.0306,0.0322,0.0326,0.036,0.0361,0.0381,0.0399,0.0422,0.0442,0.0398,0.043,0.0385,0.0347,0.0332,0.0284,0.0262,0.0239,0.0194,0.0191,0.0166,0.0177,0.0151,0.0147,0.0209,0.021,0.0211,0.0126,0,0.0342,0.0388,0.039,0.0454,0.0489,0.0487,0.0505,0.0517,0.0508,0.0515,0.0479,0.047,0.0397,0.038,0.035,0.0268,0.0243,0.0263,0.0146,0.0143,0.0127,0.0149,0.0162,0.0089,0.0125,0.0125,0.0125,0,0.0379,0.041,0.0479,0.0548,0.0565,0.0593,0.0659,0.0661,0.0657,0.0645,0.0635,0.059,0.0557,0.0484,0.0378,0.0383,0.0292,0.0226,0.0221,0.0183,0.0118,0.0071,0.0086,0.0123,0.0123,0.0123,0.0123,0,0.0428,0.0489,0.0558,0.0577,0.0625,0.0672,0.0692,0.0704,0.0732,0.0722,0.0743,0.0685,0.0658,0.0548,0.0398,0.0377,0.0276,0.0233,0.0135,0.013,0.0117,0.0111,0.0183,0.0183,0.0183,0.0183,0.0184,0,0.0483,0.0538,0.0586,0.062,0.0708,0.0719,0.08,0.0798,0.0818,0.0867,0.0799,0.0833,0.067,0.0594,0.044,0.0283,0.0305,0.0158,0.0119,0.0135,0.0132,0.0146,0.0143,0.018,0.0181,0.0181,0.0182,0,0.053,0.0551,0.0629,0.0696,0.0728,0.0782,0.0871,0.0918,0.0912,0.0979,0.0983,0.0939,0.0827,0.0665,0.0486,0.0349,0.0196,0.0141,0.0158,0.0124,0.0042,0.0043,0.0015,0.0013,0.0012,0.0011,0.001,0,0.0557,0.0598,0.0683,0.0731,0.0769,0.0856,0.0913,0.095,0.1013,0.1057,0.11,0.1031,0.0999,0.0721,0.047,0.0214,0.0193,0.0065,0.0046,0.0066,0.0031,0.0033,0.0036,0.0033,0.0033,0.0032,0.0032,0,0.0617,0.0635,0.0698,0.0782,0.0865,0.0971,0.1063,0.1137,0.1183,0.1242,0.1292,0.1269,0.1024,0.0777,0.0436,0.0262,0.01,0.0048,0.008,0.0081,0.0079,0.0046,0.0048,0.0028,0.0028,0.0029,0.0029,0.0029,0.0655,0.0703,0.0767,0.0858,0.0949,0.1068,0.1157,0.1266,0.1371,0.1439,0.1419,0.1364,0.1108,0.0658,0.0379,0.0075,0.0085,-0.003,-0.0027,-0.0023,0.0002,-0.0001,-0.0065,-0.0065,-0.0065,-0.0065,-0.0065,0,0.0707,0.0762,0.0842,0.0949,0.1045,0.1089,0.1247,0.1327,0.1459,0.1503,0.152,0.1258,0.0993,0.0689,0.0244,-0.0012,-0.0033,-0.0101,-0.0063,-0.0057,-0.0053,-0.0028,-0.0103,-0.0104,-0.0105,-0.0105,0,0,0.0736,0.0821,0.086,0.1014,0.1088,0.1223,0.1313,0.1423,0.1487,0.1519,0.1475,0.1403,0.1063,0.074,0.0398,0.0148,0.0099,0.0089,0.0145,0.0235,0.0243,0.001,0.0057,0,0,0,0,0]}],[{"header":{"parameterUnit":"m.s-1","parameterCategory":2,"la1":30.2991,"la2":30.254,"lo1":-89.0895,"lo2":-89.0444,"dy":0.0017,"dx":0.0017,"nx":28,"ny":28,"refTime":"2023-09-09T09:00:00:Z","depth":"4","parameterNumber":2,"parameterNumberName":"U-component_of_CURRENTS"},"data":[0,0,0,0,0,0,0,0,0,0,0,0,0,0,0,0,0,0,0,0,0,0,0,0,0,0,0,0,0,0,0,0,0,0,0,0,0,0,0,0,0,0,0,0,0,0,0,0,0,0,0,0,0,0,0,0,0,0,0.1332,0.1332,0,0.1375,0.1376,0.1376,0.1416,0.1416,0.1416,0.1417,0.1441,0.1442,0.1442,0,0,0,0,0,0,0,0,0,0,0,0,0,0.1265,0.1266,0.1332,0.1332,0.1333,0.1375,0.1376,0.1376,0.1416,0.1416,0.1417,0.1417,0.1441,0.1442,0.1442,0,0,0,0,0,0,0,0,0,0,0,0,0,0.13,0.1266,0.1332,0.1357,0.1359,0.1375,0.1376,0.1377,0.1416,0.1416,0.1417,0.1417,0.1441,0.1442,0.1442,0.1434,0,0,0.1444,0.1444,0,0,0,0,0,0,0,0,0.1298,0.1303,0.1353,0.1355,0.1358,0.139,0.1361,0.1394,0.1415,0.1395,0.1417,0.1417,0.1421,0.1423,0.1432,0.1435,0.1436,0.1444,0.1444,0.1444,0.1444,0,0,0,0,0,0,0,0.1296,0.1301,0.135,0.1353,0.1356,0.1359,0.1365,0.1368,0.1405,0.1397,0.14,0.1403,0.1423,0.1432,0.1433,0.1436,0.1444,0.1444,0.1444,0.1444,0.1497,0.1498,0,0,0,0,0,0,0.1289,0.1299,0.1349,0.1351,0.1328,0.136,0.1367,0.138,0.1406,0.141,0.1402,0.1404,0.1431,0.1432,0.1434,0.1464,0.1444,0.1445,0.1445,0.1496,0.1497,0.1498,0,0,0,0,0,0,0.1288,0.1293,0.1347,0.1325,0.1331,0.136,0.1375,0.138,0.1419,0.1409,0.1414,0.1438,0.1431,0.1433,0.1454,0.1463,0.1445,0.1445,0.1495,0.1496,0.1498,0.1498,0,0,0,0,0,0,0.1286,0.1293,0.1317,0.1324,0.1333,0.137,0.1374,0.1381,0.1417,0.1421,0.1441,0.1442,0.1432,0.1453,0.1454,0.1463,0.1445,0.1493,0.1495,0.1497,0.1496,0.1499,0.1502,0,0,0,0,0,0.1283,0.1302,0.1319,0.1325,0.136,0.137,0.1376,0.1398,0.1418,0.1435,0.1448,0.1443,0.1468,0.1454,0.1455,0.1465,0.1492,0.1495,0.1497,0.1495,0.1499,0.1502,0,0,0,0,0,0,0.129,0.1308,0.1326,0.1353,0.137,0.1377,0.1398,0.1416,0.1442,0.1454,0.1452,0.1454,0.1482,0.1477,0.1463,0.149,0.1481,0.1484,0.148,0.1483,0.1486,0.1505,0.1446,0,0,0,0,0,0.1302,0.1323,0.1337,0.1364,0.1373,0.1395,0.1411,0.1425,0.1439,0.1454,0.1467,0.148,0.1489,0.149,0.1503,0.1508,0.154,0.1519,0.1522,0.1524,0.1543,0.1597,0.1606,0.1507,0.1507,0.1507,0,0,0.1309,0.1326,0.1339,0.1368,0.1385,0.1394,0.1407,0.1434,0.1448,0.145,0.1485,0.15,0.1499,0.151,0.1521,0.1505,0.157,0.1527,0.1528,0.1547,0.1601,0.161,0.1619,0.1508,0.1508,0.1508,0,0,0.1316,0.1354,0.1366,0.138,0.1408,0.1416,0.1431,0.1455,0.1477,0.1503,0.1512,0.1537,0.1548,0.1547,0.1545,0.1574,0.1595,0.1578,0.1589,0.1641,0.165,0.1658,0.1713,0.1726,0.1564,0.1564,0.1564,0,0.133,0.1347,0.1372,0.1383,0.1395,0.1428,0.1437,0.1459,0.149,0.151,0.1519,0.1571,0.1567,0.158,0.1583,0.158,0.1618,0.1569,0.1644,0.1653,0.1661,0.1716,0.173,0.1564,0.1564,0.1564,0.1564,0,0.1332,0.1355,0.1363,0.1388,0.1406,0.1422,0.1444,0.1478,0.1512,0.1533,0.1586,0.1595,0.1631,0.1622,0.1604,0.1653,0.1665,0.1652,0.1633,0.1671,0.1726,0.1741,0.1564,0.1564,0.1564,0.1564,0,0,0.1335,0.1359,0.1367,0.1378,0.1412,0.1425,0.1454,0.1486,0.1527,0.1566,0.1618,0.163,0.1669,0.1672,0.1669,0.1691,0.1767,0.1691,0.1694,0.1742,0.1897,0.1758,0.1761,0.1767,0.177,0.1772,0.1912,0,0.1332,0.1349,0.1363,0.1384,0.1391,0.1427,0.1455,0.1495,0.1541,0.1601,0.1633,0.1688,0.1676,0.1706,0.1733,0.1766,0.1808,0.1732,0.1858,0.1863,0.1729,0.1773,0.178,0.1923,0.1927,0.1929,0.1931,0,0.1319,0.1339,0.1358,0.1386,0.1396,0.1422,0.1488,0.1517,0.1595,0.1638,0.1705,0.1747,0.1805,0.1791,0.1893,0.1849,0.1888,0.1905,0.191,0.1793,0.175,0.1879,0.1958,0.1956,0.1954,0.1952,0.1951,0,0.1296,0.1326,0.1347,0.1358,0.1403,0.1435,0.147,0.1541,0.1584,0.1684,0.1753,0.1819,0.1895,0.1943,0.199,0.1959,0.2099,0.206,0.1979,0.1971,0.2055,0.2045,0.2152,0.2152,0.2152,0.2151,0.2151,0,0.1263,0.1283,0.135,0.1362,0.1406,0.1444,0.1503,0.1554,0.1644,0.1702,0.1795,0.1857,0.1942,0.2021,0.2037,0.2057,0.2154,0.2002,0.1998,0.2051,0.204,0.2066,0.2054,0.2157,0.2155,0.2154,0.2153,0,0.121,0.1257,0.1293,0.1367,0.1392,0.1434,0.1515,0.1553,0.1669,0.1757,0.1802,0.1929,0.2019,0.2093,0.2176,0.2123,0.2142,0.2131,0.2208,0.2204,0.1973,0.196,0.2051,0.2048,0.2044,0.2042,0.204,0,0.1177,0.119,0.1291,0.1326,0.1363,0.1426,0.1459,0.1555,0.1591,0.1772,0.1803,0.1954,0.2019,0.2052,0.2112,0.2154,0.2125,0.2136,0.2021,0.1975,0.1964,0.1955,0.1947,0.2034,0.2034,0.2033,0.2032,0,0.1113,0.1172,0.1211,0.1281,0.1336,0.1364,0.1421,0.1447,0.156,0.1695,0.1765,0.1821,0.1928,0.1964,0.2028,0.2039,0.2113,0.2102,0.2107,0.2,0.1956,0.1946,0.1941,0.2021,0.2023,0.2024,0.2024,0,0.1085,0.1098,0.1165,0.1214,0.1277,0.1279,0.1319,0.1357,0.1415,0.1608,0.1616,0.1779,0.1895,0.1908,0.1949,0.1963,0.1923,0.185,0.1868,0.1881,0.1753,0.1668,0.1656,0,0,0,0,0,0.1043,0.1037,0.1075,0.1124,0.1181,0.121,0.1274,0.1317,0.1441,0.1451,0.1529,0.1608,0.1685,0.1752,0.1733,0.1869,0.1928,0.1837,0.1852,0.196,0.1973,0.1834,0,0,0,0,0,0,0.1015,0.1047,0.1044,0.1036,0.1047,0.1084,0.1123,0.1207,0.1205,0.1351,0.1396,0.1514,0.1604,0.169,0.1707,0.1729,0.1704,0.1928,0.1924,0.1953,0.1964,0.1975,0.1836,0,0,0,0,0]},{"header":{"parameterUnit":"m.s-1","parameterCategory":2,"la1":30.2991,"la2":30.254,"lo1":-89.0895,"lo2":-89.0444,"dy":0.0017,"dx":0.0017,"nx":28,"ny":28,"refTime":"2023-09-09T09:00:00:Z","depth":"4","parameterNumber":3,"parameterNumberName":"V-component_of_CURRENTS"},"data":[0,0,0,0,0,0,0,0,0,0,0,0,0,0,0,0,0,0,0,0,0,0,0,0,0,0,0,0,0,0,0,0,0,0,0,0,0,0,0,0,0,0,0,0,0,0,0,0,0,0,0,0,0,0,0,0,0,0,0.0214,0.0214,0,0.019,0.0189,0.0189,0.0181,0.0182,0.0182,0.0182,0.0168,0.0167,0.0166,0,0,0,0,0,0,0,0,0,0,0,0,0,0.0226,0.0225,0.0214,0.0214,0.0214,0.019,0.0189,0.0189,0.0181,0.0182,0.0182,0.0182,0.0168,0.0167,0.0166,0,0,0,0,0,0,0,0,0,0,0,0,0,0.0211,0.0225,0.0214,0.0209,0.0208,0.019,0.0189,0.0189,0.0181,0.0182,0.0182,0.0183,0.0168,0.0167,0.0166,0.0152,0,0,0.0163,0.0163,0,0,0,0,0,0,0,0,0.0212,0.0211,0.021,0.0209,0.0208,0.019,0.0188,0.0177,0.0181,0.019,0.0182,0.0183,0.0177,0.0175,0.0167,0.0151,0.0151,0.0163,0.0163,0.0162,0.0162,0,0,0,0,0,0,0,0.0213,0.0212,0.0203,0.021,0.0209,0.0197,0.0196,0.0185,0.018,0.0189,0.0189,0.0189,0.0177,0.0168,0.0167,0.015,0.0163,0.0162,0.0162,0.0161,0.016,0.0161,0,0,0,0,0,0,0.0221,0.0213,0.0204,0.0202,0.0213,0.0197,0.0195,0.0194,0.018,0.0179,0.0188,0.0188,0.017,0.0168,0.0166,0.0197,0.0162,0.0161,0.0161,0.016,0.016,0.0161,0,0,0,0,0,0,0.0221,0.022,0.0205,0.0208,0.0206,0.0197,0.0196,0.0194,0.0191,0.018,0.0178,0.0189,0.017,0.0168,0.0175,0.0195,0.0161,0.016,0.0159,0.016,0.0161,0.0227,0,0,0,0,0,0,0.0221,0.022,0.0223,0.0209,0.0206,0.0205,0.0195,0.0193,0.0191,0.0191,0.018,0.0178,0.017,0.0177,0.0174,0.0193,0.0159,0.0158,0.016,0.0161,0.0224,0.023,0.0235,0,0,0,0,0,0.0222,0.0226,0.0223,0.0222,0.0209,0.0205,0.0203,0.0196,0.0191,0.0194,0.0193,0.0179,0.0181,0.0176,0.0173,0.0192,0.0158,0.0159,0.016,0.0222,0.0229,0.0235,0,0,0,0,0,0,0.0232,0.0226,0.0222,0.0224,0.022,0.0205,0.0209,0.0199,0.0197,0.0201,0.0186,0.0185,0.0199,0.0182,0.0177,0.0193,0.0167,0.0167,0.0214,0.0221,0.0226,0.0229,0.0158,0,0,0,0,0,0.0236,0.0238,0.0229,0.0232,0.0233,0.022,0.0217,0.0213,0.0209,0.0208,0.0201,0.0196,0.0199,0.0201,0.0196,0.0203,0.0173,0.0212,0.0217,0.0222,0.0221,0.02,0.0204,0.0165,0.0165,0.0165,0,0,0.024,0.0237,0.0238,0.0234,0.0231,0.0243,0.0219,0.0222,0.0233,0.0207,0.0222,0.0214,0.0205,0.022,0.0224,0.0211,0.0216,0.0224,0.0228,0.0224,0.0202,0.0206,0.0209,0.0166,0.0166,0.0166,0,0,0.0256,0.025,0.0261,0.0262,0.0263,0.0259,0.0262,0.0254,0.0253,0.0262,0.0253,0.0255,0.0254,0.0254,0.0253,0.0281,0.0246,0.0282,0.0314,0.0294,0.0297,0.0299,0.0263,0.0261,0.0285,0.0285,0.0286,0,0.0264,0.0277,0.0263,0.0278,0.0291,0.0271,0.0295,0.0288,0.0283,0.029,0.0278,0.0282,0.027,0.0292,0.0305,0.0295,0.0272,0.0293,0.0302,0.0303,0.0304,0.0266,0.0264,0.0289,0.0288,0.0288,0.0288,0,0.029,0.0305,0.0314,0.0331,0.034,0.0355,0.0354,0.0358,0.0354,0.035,0.0364,0.0344,0.0349,0.0345,0.0335,0.0346,0.0323,0.0312,0.0287,0.0313,0.027,0.0267,0.0294,0.0292,0.0291,0.0291,0,0,0.0302,0.0328,0.0334,0.0359,0.0373,0.0387,0.0407,0.0425,0.0444,0.0428,0.045,0.0444,0.0428,0.0424,0.0407,0.0386,0.0371,0.0358,0.0355,0.0324,0.0318,0.0276,0.0267,0.0367,0.0367,0.0367,0.0283,0,0.0332,0.0376,0.0383,0.0435,0.0461,0.0463,0.049,0.0501,0.0499,0.0511,0.0485,0.0498,0.046,0.0467,0.0442,0.0392,0.0365,0.0394,0.0294,0.029,0.0254,0.0263,0.0367,0.028,0.0279,0.0278,0.0278,0,0.0362,0.0389,0.0444,0.0499,0.0514,0.0546,0.0592,0.0613,0.0617,0.0614,0.0608,0.0581,0.0556,0.0519,0.0435,0.0457,0.0394,0.0343,0.0339,0.0273,0.0242,0.0249,0.027,0.0271,0.0272,0.0272,0.0273,0,0.0385,0.0439,0.0489,0.0506,0.0557,0.0593,0.0629,0.065,0.068,0.0679,0.0691,0.0649,0.0633,0.0551,0.044,0.0442,0.0333,0.0322,0.0221,0.0217,0.025,0.0248,0.0261,0.0261,0.0261,0.0262,0.0262,0,0.0418,0.046,0.0508,0.0536,0.0609,0.0637,0.0713,0.0727,0.0762,0.0796,0.0753,0.0748,0.0642,0.0564,0.0459,0.0322,0.0346,0.0222,0.0195,0.0278,0.0281,0.0246,0.0246,0.0258,0.0259,0.026,0.026,0,0.0437,0.0464,0.0525,0.0592,0.0621,0.0678,0.0776,0.0822,0.0844,0.0882,0.0885,0.0827,0.0712,0.0588,0.0441,0.0348,0.022,0.0167,0.0254,0.0235,0.0109,0.0113,0.0045,0.0043,0.0041,0.004,0.0039,0,0.0449,0.048,0.0564,0.0606,0.0644,0.0732,0.0794,0.0855,0.0899,0.0917,0.0929,0.0843,0.0777,0.0543,0.0404,0.0194,0.0165,0.0099,0.011,0.0108,0.0089,0.0095,0.0101,0.0036,0.0035,0.0035,0.0034,0,0.047,0.0501,0.0552,0.0634,0.0708,0.0796,0.0885,0.092,0.0978,0.0997,0.0952,0.0835,0.0702,0.0521,0.036,0.0211,0.0142,0.008,0.0082,0.0092,0.0095,0.008,0.0088,0.0028,0.0029,0.003,0.003,0,0.0484,0.0521,0.0586,0.0659,0.0751,0.0831,0.0882,0.0932,0.098,0.0992,0.0967,0.0832,0.0761,0.0528,0.0377,0.0226,0.0184,0.014,0.0138,0.0144,0.0194,0.0214,0.0158,0,0,0,0,0,0.0495,0.0536,0.0604,0.0688,0.0779,0.0832,0.0928,0.0969,0.1016,0.0985,0.0981,0.085,0.0621,0.0527,0.0366,0.0332,0.0154,0.0137,0.0101,-0.0006,0.0001,0.004,0,0,0,0,0,0,0.0499,0.0566,0.0599,0.0698,0.0755,0.0861,0.0922,0.0953,0.094,0.0954,0.0835,0.0795,0.0574,0.0705,0.0355,0.0311,0.0263,0.0039,0.0036,-0.001,-0.0004,0.0002,0.0044,0,0,0,0,0]}]]